Time,TemperatureF,DewpointF,PressureIn,WindDirection,WindDirectionDegrees,WindSpeedMPH,WindSpeedGustMPH,Humidity,HourlyPrecipIn,Conditions,Clouds,dailyrainin,SoftwareType,DateUTC
2013-05-09 00:05:00,59.7,58.6,29.89,North,5,1.0,8.0,96,0.00,,,0.00,Wunderground v.1.15,2013-05-09 04:05:00,
2013-05-09 00:10:00,59.6,58.5,29.89,North,5,1.0,1.0,96,0.00,,,0.00,Wunderground v.1.15,2013-05-09 04:10:00,
2013-05-09 00:20:00,59.4,58.3,29.89,North,5,0.0,8.0,96,0.00,,,0.00,Wunderground v.1.15,2013-05-09 04:20:00,
2013-05-09 00:30:00,59.4,58.3,29.89,North,5,0.0,8.0,96,0.00,,,0.00,Wunderground v.1.15,2013-05-09 04:30:00,
2013-05-09 00:40:00,59.3,58.2,29.89,North,5,0.0,8.0,96,0.00,,,0.00,Wunderground v.1.15,2013-05-09 04:40:00,
2013-05-09 00:45:00,59.2,58.1,29.89,South,178,1.0,8.0,96,0.00,,,0.00,Wunderground v.1.15,2013-05-09 04:45:00,
2013-05-09 00:50:00,59.2,58.1,29.89,SSW,209,2.0,2.0,96,0.00,,,0.00,Wunderground v.1.15,2013-05-09 04:50:00,
2013-05-09 01:00:00,59.3,58.4,29.89,SSW,202,2.0,2.0,97,0.00,,,0.00,Wunderground v.1.15,2013-05-09 05:00:00,
2013-05-09 01:05:00,59.4,58.5,29.88,SSW,213,2.0,8.0,97,0.00,,,0.00,Wunderground v.1.15,2013-05-09 05:05:00,
2013-05-09 01:15:00,59.4,58.5,29.88,SSW,207,1.0,8.0,97,0.00,,,0.00,Wunderground v.1.15,2013-05-09 05:15:00,
2013-05-09 01:25:00,59.4,58.5,29.88,SSW,207,0.0,8.0,97,0.00,,,0.01,Wunderground v.1.15,2013-05-09 05:25:00,
2013-05-09 01:35:00,59.4,58.5,29.88,South,179,1.0,8.0,97,0.05,,,0.02,Wunderground v.1.15,2013-05-09 05:35:00,
2013-05-09 01:40:00,59.3,58.4,29.88,SSE,155,2.0,8.0,97,0.05,,,0.02,Wunderground v.1.15,2013-05-09 05:40:00,
2013-05-09 01:50:00,59.2,58.1,29.88,SSE,167,3.0,3.0,96,0.00,,,0.02,Wunderground v.1.15,2013-05-09 05:50:00,
2013-05-09 02:00:00,59.0,57.9,29.87,South,184,3.0,8.0,96,0.00,,,0.02,Wunderground v.1.15,2013-05-09 06:00:00,
2013-05-09 02:10:00,58.7,57.6,29.87,SSE,156,3.0,3.0,96,0.00,,,0.02,Wunderground v.1.15,2013-05-09 06:10:00,
2013-05-09 02:20:00,58.5,57.4,29.87,SSE,164,2.0,2.0,96,0.00,,,0.02,Wunderground v.1.15,2013-05-09 06:20:00,
2013-05-09 02:30:00,58.1,57.0,29.86,South,180,2.0,2.0,96,0.00,,,0.02,Wunderground v.1.15,2013-05-09 06:30:00,
2013-05-09 02:35:00,58.0,56.9,29.86,South,178,2.0,8.0,96,0.00,,,0.02,Wunderground v.1.15,2013-05-09 06:35:00,
2013-05-09 02:45:00,57.7,56.6,29.86,South,178,1.0,2.0,96,0.00,,,0.02,Wunderground v.1.15,2013-05-09 06:45:00,
2013-05-09 02:55:00,57.3,55.9,29.86,SSE,153,2.0,8.0,95,0.00,,,0.02,Wunderground v.1.15,2013-05-09 06:55:00,
2013-05-09 03:00:00,57.2,55.8,29.86,South,184,1.0,8.0,95,0.00,,,0.02,Wunderground v.1.15,2013-05-09 07:00:00,
2013-05-09 03:10:00,56.9,55.5,29.86,South,183,1.0,1.0,95,0.00,,,0.02,Wunderground v.1.15,2013-05-09 07:10:00,
2013-05-09 03:20:00,56.5,55.1,29.86,SSE,154,1.0,8.0,95,0.00,,,0.02,Wunderground v.1.15,2013-05-09 07:20:00,
2013-05-09 03:30:00,56.0,54.6,29.86,SE,143,2.0,8.0,95,0.00,,,0.02,Wunderground v.1.15,2013-05-09 07:30:00,
2013-05-09 03:40:00,55.8,54.4,29.86,South,175,2.0,8.0,95,0.00,,,0.02,Wunderground v.1.15,2013-05-09 07:40:00,
2013-05-09 03:50:00,55.5,54.1,29.86,SSE,151,2.0,8.0,95,0.00,,,0.02,Wunderground v.1.15,2013-05-09 07:50:00,
2013-05-09 04:00:00,55.2,53.8,29.86,SE,140,3.0,8.0,95,0.00,,,0.02,Wunderground v.1.15,2013-05-09 08:00:00,
2013-05-09 04:10:00,55.2,53.8,29.86,SE,138,4.0,8.0,95,0.00,,,0.02,Wunderground v.1.15,2013-05-09 08:10:00,
2013-05-09 04:20:00,55.0,53.6,29.86,SSE,164,3.0,3.0,95,0.00,,,0.02,Wunderground v.1.15,2013-05-09 08:20:00,
2013-05-09 04:30:00,54.8,53.7,29.85,SSE,153,2.0,2.0,96,0.00,,,0.02,Wunderground v.1.15,2013-05-09 08:30:00,
2013-05-09 04:40:00,54.6,53.2,29.85,SSE,165,2.0,8.0,95,0.00,,,0.02,Wunderground v.1.15,2013-05-09 08:40:00,
2013-05-09 04:50:00,54.2,52.8,29.86,SSE,153,2.0,8.0,95,0.00,,,0.02,Wunderground v.1.15,2013-05-09 08:50:00,
2013-05-09 04:55:00,54.1,53.0,29.86,SSE,168,2.0,8.0,96,0.00,,,0.02,Wunderground v.1.15,2013-05-09 08:55:00,
2013-05-09 05:05:00,53.9,52.5,29.86,SSE,167,1.0,8.0,95,0.00,,,0.02,Wunderground v.1.15,2013-05-09 09:05:00,
2013-05-09 05:15:00,53.4,52.0,29.86,SE,130,2.0,8.0,95,0.00,,,0.02,Wunderground v.1.15,2013-05-09 09:15:00,
2013-05-09 05:25:00,53.2,51.8,29.86,SE,130,1.0,8.0,95,0.00,,,0.02,Wunderground v.1.15,2013-05-09 09:25:00,
2013-05-09 05:30:00,53.1,51.7,29.86,SE,130,1.0,8.0,95,0.00,,,0.02,Wunderground v.1.15,2013-05-09 09:30:00,
2013-05-09 05:40:00,52.8,51.4,29.86,SSE,154,1.0,1.0,95,0.00,,,0.02,Wunderground v.1.15,2013-05-09 09:40:00,
2013-05-09 05:50:00,52.5,51.1,29.86,SSE,154,0.0,8.0,95,0.00,,,0.02,Wunderground v.1.15,2013-05-09 09:50:00,
2013-05-09 06:00:00,52.3,50.9,29.86,SSE,154,0.0,0.0,95,0.00,,,0.02,Wunderground v.1.15,2013-05-09 10:00:00,
2013-05-09 06:10:00,52.1,50.7,29.86,SSE,154,0.0,1.0,95,0.00,,,0.02,Wunderground v.1.15,2013-05-09 10:10:00,
2013-05-09 06:15:00,52.0,50.6,29.86,SE,136,1.0,1.0,95,0.00,,,0.02,Wunderground v.1.15,2013-05-09 10:15:00,
2013-05-09 06:20:00,52.2,51.1,29.87,SSE,159,2.0,2.0,96,0.00,,,0.02,Wunderground v.1.15,2013-05-09 10:20:00,
2013-05-09 06:31:00,52.4,51.3,29.86,SSE,159,1.0,2.0,96,0.00,,,0.02,Wunderground v.1.15,2013-05-09 10:31:00,
2013-05-09 06:36:00,52.5,51.4,29.86,South,169,1.0,2.0,96,0.00,,,0.02,Wunderground v.1.15,2013-05-09 10:36:00,
2013-05-09 06:41:00,52.7,51.6,29.86,SSE,153,2.0,4.0,96,0.00,,,0.02,Wunderground v.1.15,2013-05-09 10:41:00,
2013-05-09 06:51:00,53.2,52.4,29.87,SE,144,2.0,4.0,97,0.00,,,0.02,Wunderground v.1.15,2013-05-09 10:51:00,
2013-05-09 06:59:00,53.7,52.9,29.87,SE,138,3.0,3.0,97,0.00,,,0.02,Wunderground v.1.15,2013-05-09 10:59:00,
2013-05-09 07:04:00,53.8,53.0,29.87,SSE,152,3.0,3.0,97,0.00,,,0.02,Wunderground v.1.15,2013-05-09 11:04:00,
2013-05-09 07:10:00,54.2,53.4,29.87,SSE,148,3.0,3.0,97,0.00,,,0.02,Wunderground v.1.15,2013-05-09 11:10:00,
2013-05-09 07:15:00,54.5,53.7,29.87,SE,143,2.0,3.0,97,0.00,,,0.02,Wunderground v.1.15,2013-05-09 11:15:00,
2013-05-09 07:20:00,54.7,53.9,29.88,SE,138,2.0,3.0,97,0.00,,,0.02,Wunderground v.1.15,2013-05-09 11:20:00,
2013-05-09 07:25:00,54.8,54.0,29.88,SE,142,2.0,4.0,97,0.00,,,0.02,Wunderground v.1.15,2013-05-09 11:25:00,
2013-05-09 07:30:00,54.8,54.0,29.88,SE,136,3.0,3.0,97,0.00,,,0.02,Wunderground v.1.15,2013-05-09 11:30:00,
2013-05-09 07:40:00,55.2,54.4,29.88,SSE,152,3.0,3.0,97,0.00,,,0.02,Wunderground v.1.15,2013-05-09 11:40:00,
2013-05-09 07:50:00,55.4,54.6,29.88,SE,124,3.0,3.0,97,0.00,,,0.02,Wunderground v.1.15,2013-05-09 11:50:00,
2013-05-09 08:00:00,56.0,54.9,29.88,SSE,153,2.0,2.0,96,0.00,,,0.02,Wunderground v.1.15,2013-05-09 12:00:00,
2013-05-09 08:05:00,56.4,55.6,29.88,SSE,150,1.0,2.0,97,0.00,,,0.02,Wunderground v.1.15,2013-05-09 12:05:00,
2013-05-09 08:15:00,56.9,55.8,29.88,SSE,155,2.0,3.0,96,0.00,,,0.02,Wunderground v.1.15,2013-05-09 12:15:00,
2013-05-09 08:25:00,57.2,55.8,29.89,SE,144,2.0,2.0,95,0.00,,,0.02,Wunderground v.1.15,2013-05-09 12:25:00,
2013-05-09 08:30:00,57.3,55.9,29.89,ESE,111,2.0,2.0,95,0.00,,,0.02,Wunderground v.1.15,2013-05-09 12:30:00,
2013-05-09 08:40:00,57.5,56.1,29.89,SE,143,3.0,3.0,95,0.00,,,0.02,Wunderground v.1.15,2013-05-09 12:40:00,
2013-05-09 08:50:00,57.7,56.3,29.89,ESE,118,2.0,3.0,95,0.00,,,0.02,Wunderground v.1.15,2013-05-09 12:50:00,
2013-05-09 09:00:00,57.9,56.5,29.89,SE,146,4.0,4.0,95,0.00,,,0.02,Wunderground v.1.15,2013-05-09 13:00:00,
2013-05-09 09:10:00,58.5,56.8,29.89,SSE,149,3.0,4.0,94,0.00,,,0.02,Wunderground v.1.15,2013-05-09 13:10:00,
2013-05-09 09:20:00,58.9,57.2,29.89,SSE,149,3.0,3.0,94,0.00,,,0.02,Wunderground v.1.15,2013-05-09 13:20:00,
2013-05-09 09:30:00,59.3,57.3,29.89,SE,132,3.0,4.0,93,0.00,,,0.02,Wunderground v.1.15,2013-05-09 13:30:00,
2013-05-09 09:40:00,59.9,57.9,29.89,ESE,113,2.0,4.0,93,0.00,,,0.02,Wunderground v.1.15,2013-05-09 13:40:00,
2013-05-09 09:50:00,60.3,58.0,29.89,SSE,155,2.0,2.0,92,0.00,,,0.02,Wunderground v.1.15,2013-05-09 13:50:00,
2013-05-09 09:55:00,60.4,57.5,29.89,SE,124,2.0,2.0,90,0.00,,,0.02,Wunderground v.1.15,2013-05-09 13:55:00,
2013-05-09 10:05:00,61.6,58.3,29.89,South,170,2.0,3.0,89,0.00,,,0.02,Wunderground v.1.15,2013-05-09 14:05:00,
2013-05-09 10:15:00,62.1,58.2,29.89,SSE,165,2.0,4.0,87,0.00,,,0.02,Wunderground v.1.15,2013-05-09 14:15:00,
2013-05-09 10:25:00,62.7,59.1,29.89,SE,146,1.0,4.0,88,0.00,,,0.02,Wunderground v.1.15,2013-05-09 14:25:00,
2013-05-09 10:30:00,62.8,58.5,29.89,South,171,1.0,2.0,86,0.00,,,0.02,Wunderground v.1.15,2013-05-09 14:30:00,
2013-05-09 10:40:00,62.7,58.8,29.89,South,173,2.0,2.0,87,0.00,,,0.02,Wunderground v.1.15,2013-05-09 14:40:00,
2013-05-09 10:50:00,62.8,58.5,29.89,ESE,115,2.0,3.0,86,0.00,,,0.02,Wunderground v.1.15,2013-05-09 14:50:00,
2013-05-09 10:55:00,63.4,58.8,29.89,SE,132,2.0,4.0,85,0.00,,,0.02,Wunderground v.1.15,2013-05-09 14:55:00,
2013-05-09 11:05:00,64.4,60.1,29.89,SE,142,2.0,2.0,86,0.00,,,0.02,Wunderground v.1.15,2013-05-09 15:05:00,
2013-05-09 11:15:00,66.1,59.4,29.89,South,171,2.0,3.0,79,0.00,,,0.02,Wunderground v.1.15,2013-05-09 15:15:00,
2013-05-09 11:25:00,66.4,60.0,29.88,SSW,198,2.0,3.0,80,0.00,,,0.02,Wunderground v.1.15,2013-05-09 15:25:00,
2013-05-09 11:35:00,67.0,61.3,29.89,SSE,161,2.0,3.0,82,0.00,,,0.02,Wunderground v.1.15,2013-05-09 15:35:00,
2013-05-09 11:45:00,65.7,58.3,29.89,East,101,3.0,3.0,77,0.00,,,0.02,Wunderground v.1.15,2013-05-09 15:45:00,
2013-05-09 11:50:00,65.4,58.4,29.88,ENE,75,2.0,2.0,78,0.00,,,0.02,Wunderground v.1.15,2013-05-09 15:50:00,
2013-05-09 12:00:00,65.8,58.4,29.88,NNE,32,2.0,3.0,77,0.00,,,0.02,Wunderground v.1.15,2013-05-09 16:00:00,
2013-05-09 12:10:00,67.8,59.6,29.88,NNE,19,3.0,3.0,75,0.00,,,0.02,Wunderground v.1.15,2013-05-09 16:10:00,
2013-05-09 12:20:00,67.9,58.9,29.88,West,279,2.0,2.0,73,0.00,,,0.02,Wunderground v.1.15,2013-05-09 16:20:00,
2013-05-09 12:30:00,66.9,58.0,29.88,WNW,295,1.0,1.0,73,0.00,,,0.02,Wunderground v.1.15,2013-05-09 16:30:00,
2013-05-09 12:40:00,66.6,58.1,29.88,SE,142,1.0,2.0,74,0.00,,,0.02,Wunderground v.1.15,2013-05-09 16:40:00,
2013-05-09 12:50:00,66.3,58.9,29.87,WNW,288,3.0,3.0,77,0.00,,,0.02,Wunderground v.1.15,2013-05-09 16:50:00,
2013-05-09 13:00:00,64.4,58.4,29.88,NNW,331,4.0,4.0,81,1.72,,,0.06,Wunderground v.1.15,2013-05-09 17:00:00,
2013-05-09 13:10:00,61.6,58.0,29.88,North,11,5.0,5.0,88,0.65,,,0.14,Wunderground v.1.15,2013-05-09 17:10:00,
2013-05-09 13:15:00,60.7,57.7,29.88,NNE,26,5.0,5.0,90,0.42,,,0.19,Wunderground v.1.15,2013-05-09 17:15:00,
2013-05-09 13:25:00,61.3,59.0,29.88,NNE,25,3.0,4.0,92,0.06,,,0.20,Wunderground v.1.15,2013-05-09 17:25:00,
2013-05-09 13:35:00,61.9,59.2,29.88,NE,38,3.0,3.0,91,0.00,,,0.20,Wunderground v.1.15,2013-05-09 17:35:00,
2013-05-09 13:45:00,63.5,60.5,29.88,SSW,213,1.0,2.0,90,0.00,,,0.20,Wunderground v.1.15,2013-05-09 17:45:00,
2013-05-09 13:55:00,65.0,60.7,29.88,SSE,163,2.0,3.0,86,0.00,,,0.20,Wunderground v.1.15,2013-05-09 17:55:00,
2013-05-09 14:05:00,67.7,62.3,29.87,ENE,78,1.0,2.0,83,0.00,,,0.20,Wunderground v.1.15,2013-05-09 18:05:00,
2013-05-09 14:10:00,68.4,63.4,29.87,WNW,283,1.0,1.0,84,0.00,,,0.20,Wunderground v.1.15,2013-05-09 18:10:00,
2013-05-09 14:20:00,67.1,61.8,29.88,ESE,103,2.0,2.0,83,0.00,,,0.20,Wunderground v.1.15,2013-05-09 18:20:00,
2013-05-09 14:25:00,66.5,61.8,29.88,South,176,2.0,2.0,85,0.00,,,0.20,Wunderground v.1.15,2013-05-09 18:25:00,
2013-05-09 14:30:00,65.6,60.0,29.88,SSE,153,2.0,3.0,82,0.00,,,0.20,Wunderground v.1.15,2013-05-09 18:30:00,
2013-05-09 14:40:00,66.2,60.9,29.87,SSE,165,4.0,4.0,83,0.00,,,0.20,Wunderground v.1.15,2013-05-09 18:40:00,
2013-05-09 14:50:00,68.2,61.8,29.87,SSE,165,2.0,2.0,80,0.00,,,0.20,Wunderground v.1.15,2013-05-09 18:50:00,
2013-05-09 14:55:00,68.4,61.6,29.87,SSW,196,2.0,3.0,79,0.00,,,0.20,Wunderground v.1.15,2013-05-09 18:55:00,
2013-05-09 15:05:00,67.1,60.4,29.87,SSW,198,2.0,3.0,79,0.00,,,0.20,Wunderground v.1.15,2013-05-09 19:05:00,
2013-05-09 15:15:00,67.3,59.8,29.87,SSE,167,2.0,2.0,77,0.00,,,0.20,Wunderground v.1.15,2013-05-09 19:15:00,
2013-05-09 15:25:00,67.2,60.1,29.87,West,269,1.0,2.0,78,0.00,,,0.20,Wunderground v.1.15,2013-05-09 19:25:00,
2013-05-09 15:35:00,67.0,60.6,29.87,SSW,212,2.0,3.0,80,0.00,,,0.20,Wunderground v.1.15,2013-05-09 19:35:00,
2013-05-09 15:45:00,67.3,60.2,29.87,West,280,2.0,2.0,78,0.00,,,0.20,Wunderground v.1.15,2013-05-09 19:45:00,
2013-05-09 15:50:00,67.4,60.3,29.87,North,360,1.0,2.0,78,0.00,,,0.20,Wunderground v.1.15,2013-05-09 19:50:00,
2013-05-09 16:00:00,69.2,61.7,29.87,SW,221,3.0,3.0,77,0.00,,,0.20,Wunderground v.1.15,2013-05-09 20:00:00,
2013-05-09 16:10:00,69.5,59.7,29.87,NNW,346,3.0,4.0,71,0.00,,,0.20,Wunderground v.1.15,2013-05-09 20:10:00,
2013-05-09 16:15:00,69.7,61.4,29.87,NW,307,4.0,6.0,75,0.00,,,0.20,Wunderground v.1.15,2013-05-09 20:15:00,
2013-05-09 16:25:00,68.8,59.8,29.88,NNW,330,4.0,4.0,73,0.00,,,0.20,Wunderground v.1.15,2013-05-09 20:25:00,
2013-05-09 16:30:00,69.0,60.4,29.88,NW,323,4.0,5.0,74,0.00,,,0.20,Wunderground v.1.15,2013-05-09 20:30:00,
2013-05-09 16:40:00,69.4,60.8,29.88,NNW,348,5.0,5.0,74,0.00,,,0.20,Wunderground v.1.15,2013-05-09 20:40:00,
2013-05-09 16:45:00,68.2,58.4,29.88,NW,323,5.0,5.0,71,0.00,,,0.20,Wunderground v.1.15,2013-05-09 20:45:00,
2013-05-09 16:55:00,68.1,59.5,29.88,NW,324,5.0,6.0,74,0.00,,,0.21,Wunderground v.1.15,2013-05-09 20:55:00,
2013-05-09 17:05:00,67.6,58.2,29.88,NNW,341,5.0,9.0,72,0.00,,,0.21,Wunderground v.1.15,2013-05-09 21:05:00,
2013-05-09 17:10:00,67.9,59.7,29.88,NW,321,4.0,6.0,75,0.00,,,0.21,Wunderground v.1.15,2013-05-09 21:10:00,
2013-05-09 17:20:00,67.9,59.3,29.88,NW,325,5.0,5.0,74,0.00,,,0.21,Wunderground v.1.15,2013-05-09 21:20:00,
2013-05-09 17:30:00,67.1,58.5,29.89,NNW,335,4.0,4.0,74,0.00,,,0.21,Wunderground v.1.15,2013-05-09 21:30:00,
2013-05-09 17:40:00,65.7,57.6,29.89,NW,325,4.0,5.0,75,0.00,,,0.21,Wunderground v.1.15,2013-05-09 21:40:00,
2013-05-09 17:50:00,64.9,58.6,29.89,NW,315,3.0,3.0,80,0.00,,,0.21,Wunderground v.1.15,2013-05-09 21:50:00,
2013-05-09 18:00:00,65.6,58.2,29.89,NNW,336,4.0,4.0,77,0.00,,,0.21,Wunderground v.1.15,2013-05-09 22:00:00,
2013-05-09 18:10:00,65.6,58.9,29.89,NW,316,4.0,4.0,79,0.00,,,0.21,Wunderground v.1.15,2013-05-09 22:10:00,
2013-05-09 18:20:00,65.9,59.2,29.89,WNW,284,3.0,3.0,79,0.00,,,0.21,Wunderground v.1.15,2013-05-09 22:20:00,
2013-05-09 18:30:00,65.7,58.3,29.89,WNW,292,4.0,4.0,77,0.00,,,0.21,Wunderground v.1.15,2013-05-09 22:30:00,
2013-05-09 18:35:00,65.5,58.5,29.89,West,267,3.0,4.0,78,0.00,,,0.21,Wunderground v.1.15,2013-05-09 22:35:00,
2013-05-09 18:45:00,65.2,58.5,29.89,NW,323,3.0,5.0,79,0.00,,,0.21,Wunderground v.1.15,2013-05-09 22:45:00,
2013-05-09 18:55:00,65.1,58.4,29.89,West,280,3.0,5.0,79,0.00,,,0.21,Wunderground v.1.15,2013-05-09 22:55:00,
2013-05-09 19:05:00,64.7,58.4,29.89,NW,310,3.0,3.0,80,0.00,,,0.21,Wunderground v.1.15,2013-05-09 23:05:00,
2013-05-09 19:15:00,64.5,58.2,29.90,NW,326,3.0,3.0,80,0.00,,,0.21,Wunderground v.1.15,2013-05-09 23:15:00,
2013-05-09 19:25:00,64.3,58.0,29.90,NW,310,3.0,9.0,80,0.00,,,0.21,Wunderground v.1.15,2013-05-09 23:25:00,
2013-05-09 19:30:00,64.0,58.1,29.90,NW,325,2.0,2.0,81,0.00,,,0.21,Wunderground v.1.15,2013-05-09 23:30:00,
2013-05-09 19:40:00,63.5,57.9,29.90,WNW,296,1.0,2.0,82,0.00,,,0.21,Wunderground v.1.15,2013-05-09 23:40:00,
2013-05-09 19:50:00,63.2,57.6,29.90,West,271,1.0,1.0,82,0.00,,,0.21,Wunderground v.1.15,2013-05-09 23:50:00,
2013-05-09 19:55:00,62.7,57.5,29.90,West,271,0.0,2.0,83,0.00,,,0.21,Wunderground v.1.15,2013-05-09 23:55:00,
2013-05-09 20:05:00,62.0,57.4,29.90,West,271,0.0,2.0,85,0.00,,,0.21,Wunderground v.1.15,2013-05-10 00:05:00,
2013-05-09 20:15:00,60.8,57.2,29.90,West,271,1.0,2.0,88,0.00,,,0.21,Wunderground v.1.15,2013-05-10 00:15:00,
2013-05-09 20:25:00,60.1,56.8,29.90,West,271,0.0,2.0,89,0.00,,,0.21,Wunderground v.1.15,2013-05-10 00:25:00,
2013-05-09 20:35:00,59.6,57.0,29.91,West,271,0.0,2.0,91,0.00,,,0.21,Wunderground v.1.15,2013-05-10 00:35:00,
2013-05-09 20:45:00,59.0,56.7,29.91,West,271,0.0,2.0,92,0.00,,,0.21,Wunderground v.1.15,2013-05-10 00:45:00,
2013-05-09 20:50:00,58.7,56.4,29.91,West,271,0.0,2.0,92,0.00,,,0.21,Wunderground v.1.15,2013-05-10 00:50:00,
2013-05-09 21:00:00,58.1,56.1,29.91,West,271,1.0,2.0,93,0.00,,,0.21,Wunderground v.1.15,2013-05-10 01:00:00,
2013-05-09 21:10:00,57.5,55.5,29.91,SSW,194,2.0,2.0,93,0.00,,,0.21,Wunderground v.1.15,2013-05-10 01:10:00,
2013-05-09 21:20:00,57.3,55.6,29.91,SSW,194,1.0,2.0,94,0.00,,,0.21,Wunderground v.1.15,2013-05-10 01:20:00,
2013-05-09 21:30:00,57.1,55.4,29.92,SSW,194,1.0,2.0,94,0.00,,,0.21,Wunderground v.1.15,2013-05-10 01:30:00,
2013-05-09 21:40:00,56.8,55.4,29.92,SSW,194,1.0,2.0,95,0.00,,,0.21,Wunderground v.1.15,2013-05-10 01:40:00,
2013-05-09 21:50:00,56.5,55.1,29.92,SSW,194,1.0,2.0,95,0.00,,,0.21,Wunderground v.1.15,2013-05-10 01:50:00,
2013-05-09 22:00:00,56.0,54.6,29.92,SSW,194,1.0,2.0,95,0.00,,,0.21,Wunderground v.1.15,2013-05-10 02:00:00,
2013-05-09 22:10:00,55.8,54.4,29.92,SSW,194,1.0,2.0,95,0.00,,,0.21,Wunderground v.1.15,2013-05-10 02:10:00,
2013-05-09 22:20:00,55.5,54.1,29.93,SSW,194,1.0,2.0,95,0.00,,,0.21,Wunderground v.1.15,2013-05-10 02:20:00,
2013-05-09 22:30:00,55.4,54.3,29.93,SSW,194,1.0,2.0,96,0.00,,,0.21,Wunderground v.1.15,2013-05-10 02:30:00,
2013-05-09 22:40:00,54.9,53.5,29.94,SSW,194,1.0,1.0,95,0.00,,,0.21,Wunderground v.1.15,2013-05-10 02:40:00,
2013-05-09 22:45:00,54.8,53.7,29.94,SSW,194,1.0,2.0,96,0.00,,,0.21,Wunderground v.1.15,2013-05-10 02:45:00,
2013-05-09 22:55:00,55.2,54.1,29.94,SSW,194,1.0,2.0,96,0.00,,,0.21,Wunderground v.1.15,2013-05-10 02:55:00,
2013-05-09 23:05:00,55.6,54.8,29.93,SW,214,1.0,2.0,97,0.00,,,0.21,Wunderground v.1.15,2013-05-10 03:05:00,
2013-05-09 23:10:00,55.8,55.0,29.93,SW,214,1.0,2.0,97,0.00,,,0.21,Wunderground v.1.15,2013-05-10 03:10:00,
2013-05-09 23:20:00,56.4,55.6,29.93,SW,214,1.0,2.0,97,0.00,,,0.21,Wunderground v.1.15,2013-05-10 03:20:00,
2013-05-09 23:30:00,56.2,55.4,29.93,SW,214,1.0,1.0,97,0.00,,,0.21,Wunderground v.1.15,2013-05-10 03:30:00,
2013-05-09 23:40:00,55.4,54.3,29.93,SW,214,1.0,2.0,96,0.00,,,0.21,Wunderground v.1.15,2013-05-10 03:40:00,
2013-05-09 23:50:00,55.2,54.1,29.93,SW,214,1.0,1.0,96,0.00,,,0.21,Wunderground v.1.15,2013-05-10 03:50:00,